Weather Roundup
Issued by NWS

Home | Current Version | Previous Version | Text Only | Print | Product List | Glossary On
Versions: 1 2 3 4 5 6 7 8 9 10 11 12 13 14 15 16 17 18 19 20 21 22 23 24 25 26 27 28 29 30 31 32 33 34 35 36 37 38 39 40 41 42 43 44 45 46 47 48 49 50
000
NZUS93 KARX 020559
HRRWXR

CURRENT HOURLY OBSERVATIONS ACROSS
MUCH OF THE UPPER MISSISSIPPI VALLEY
NATIONAL WEATHER SERVICE LA CROSSE WI
1200 AM CST MON MAR 02 2015


...SOUTHEAST MINNESOTA...


CITY           SKY/WX    TMP DP  RH WIND       PRES   REMARKS
ROCHESTER      CLEAR     18  11  74 NW21      30.36R WCI   1
ROCHESTER/MAYO FAIR      20  13  73 W16G26    30.36R WCI   6
WINONA         CLEAR     23  16  74 W10G17    30.38R WCI  12
AUSTIN         CLEAR     18  12  79 NW14      30.38R WCI   4
ALBERT LEA     CLEAR     19  12  73 NW8       30.39S WCI   9
DODGE CENTER   CLEAR     18  12  79 NW14      30.37R WCI   4
PRESTON        CLEAR     17  12  80 NW17      30.36R WCI   2
OWATONNA       CLEAR     18  10  73 W10       30.39R WCI   6
FARIBAULT      CLEAR     18  10  73 W8        30.40R WCI   7
$$

...ELSEWHERE IN MINNESOTA...


CITY           SKY/WX    TMP DP  RH WIND       PRES   REMARKS
MINNEAPOLIS    PTCLDY    19   9  65 NW13      30.40R WCI   6
INTNL FALLS    CLOUDY    10   3  73 W9        30.25R WCI  -3
DULUTH         CLEAR     12   4  70 W9        30.27R WCI   0
RED WING       CLOUDY    23  10  58 NW8G21    30.38R WCI  14
REDWOOD FALLS  CLEAR     15  10  80 NW10      30.44R WCI   2
MANKATO        CLEAR     18   9  68 NW13      30.41R WCI   4
FAIRMONT       CLEAR     18   9  68 W9        30.41R WCI   6
$$

...SOUTHWEST WISCONSIN...


CITY           SKY/WX    TMP DP  RH WIND       PRES   REMARKS
LA CROSSE      CLEAR     10   4  76 CALM      30.37R
PRAIRIE DU CHI FAIR      17   8  68 NW9       30.39R WCI   5
BOSCOBEL       FAIR      11   5  77 SW8       30.39R WCI  -1
LONE ROCK      NOT AVBL
PLATTEVILLE    CLEAR     11   6  83 SW6       30.35R WCI   1
FORT MC COY    CLEAR      4   1  85 CALM      30.34R
VIROQUA        FAIR      16  10  78 W6        30.31R WCI   7
WIS DELLS      NOT AVBL
$$

...ELSEWHERE IN WISCONSIN...


CITY           SKY/WX    TMP DP  RH WIND       PRES   REMARKS
MILWAUKEE      CLEAR     21   6  52 W12       30.32R WCI   9
MADISON        CLEAR     15   5  64 SW5       30.33R WCI   8
GREEN BAY      CLEAR     17   7  64 SW7       30.25R WCI   8
EAU CLAIRE     NOT AVBL
BLACK RVR FLS  FAIR       7   2  81 CALM      30.31R
MEDFORD        CLEAR     13   6  73 W7        30.22R WCI   3
WAUSAU         CLEAR     14   5  67 NW8       30.22R WCI   3
WIS RAPIDS     CLEAR     14   5  67 W6        30.29R WCI   5
MARSHFIELD     CLEAR     14   6  70 W8        30.26R WCI   3
RICE LAKE      CLEAR     19  10  68 W13G18    30.32R WCI   5
$$

...NORTHEAST IOWA...


CITY           SKY/WX    TMP DP  RH WIND       PRES   REMARKS
DECORAH        PTCLDY    16   9  73 VRB5      30.36R WCI   9
MASON CITY     CLEAR     17  11  77 NW14      30.42R WCI   3
CHARLES CITY   CLEAR     18  12  79 W12       30.41R WCI   5
OELWEIN        PTCLDY     5   3  92 W10       30.40R WCI -10
$$

...ELSEWHERE IN IOWA...


CITY           SKY/WX    TMP DP  RH WIND       PRES   REMARKS
DES MOINES     PTCLDY    21  13  71 NW6       30.47R WCI  13
IOWA CITY      PTCLDY    15  10  80 W3        30.47R
FORT DODGE     CLEAR     18  10  73 CALM      30.46R
$$

...NORTHERN ILLINOIS...


CITY           SKY/WX    TMP DP  RH WIND       PRES   REMARKS
CHICAGO-OHARE  PTCLDY    19   8  62 W13       30.36R WCI   6
CHICAGO-MIDWAY CLEAR     20  11  68 W10       30.37R WCI   9
MOLINE         PTCLDY     9   4  80 SW3       30.44R
ROCKFORD       CLEAR     15   7  70 W8        30.39R WCI   4
PEORIA         MOCLDY    20  13  74 W3        30.45S
$$

NOTE: "FAIR" INDICATES FEW OR NO CLOUDS BELOW 12,000 FEET WITH NO
SIGNIFICANT WEATHER AND/OR OBSTRUCTIONS TO VISIBILITY. WIND
SPEEDS ARE IN MILES-PER-HOUR.



USA.gov is the U.S. government's official web portal to all federal, state and local government web resources and services.